| time (UTC) | temp C | wind direction | speed KPH | gust KPH | rain 1hr cm | rain 24hr cm | rain mn cm | humidity % | barometer mb |
| 20260503224601 | 12 | 225 | 0.0 | 3.2 | 0.00 | 0.00 | 0.00 | 72 | 1019.0 |
| 20260503223052 | 12 | 225 | 0.0 | 3.2 | 0.00 | 0.00 | 0.00 | 71 | 1019.0 |
| 20260503221600 | 12 | 225 | 1.6 | 3.2 | 0.00 | 0.00 | 0.00 | 71 | 1019.1 |
| 20260503220049 | 12 | 225 | 1.6 | 6.4 | 0.00 | 0.00 | 0.00 | 70 | 1019.0 |
| 20260503214548 | 12 | 227 | 3.2 | 9.7 | 0.00 | 0.00 | 0.00 | 70 | 1019.0 |
| 20260503213048 | 12 | 352 | 0.0 | 0.0 | 0.00 | 0.00 | 0.00 | 73 | 1018.9 |
| 20260503211549 | 13 | 352 | 0.0 | 4.8 | 0.00 | 0.00 | 0.00 | 70 | 1018.9 |
| 20260503210045 | 13 | 352 | 0.0 | 1.6 | 0.00 | 0.00 | 0.00 | 71 | 1018.7 |
| 20260503204601 | 13 | 352 | 0.0 | 1.6 | 0.00 | 0.00 | 0.00 | 70 | 1018.7 |
| 20260503203046 | 14 | 352 | 0.0 | 3.2 | 0.00 | 0.00 | 0.00 | 68 | 1018.7 |
| 20260503201544 | 15 | 352 | 0.0 | 1.6 | 0.00 | 0.00 | 0.00 | 66 | 1018.5 |
| 20260503200044 | 15 | 352 | 0.0 | 3.2 | 0.00 | 0.00 | 0.00 | 64 | 1018.5 |
| 20260503194546 | 15 | 352 | 0.0 | 0.0 | 0.00 | 0.00 | 0.00 | 62 | 1018.3 |
| 20260503193047 | 16 | 352 | 0.0 | 0.0 | 0.00 | 0.00 | 0.00 | 61 | 1018.2 |
| 20260503191604 | 16 | 352 | 0.0 | 1.6 | 0.00 | 0.00 | 0.00 | 58 | 1018.1 |
| 20260503190046 | 17 | 352 | 0.0 | 0.0 | 0.00 | 0.00 | 0.00 | 55 | 1018.0 |
| 20260503184541 | 17 | 352 | 0.0 | 0.0 | 0.00 | 0.00 | 0.00 | 54 | 1017.9 |
| 20260503183040 | 17 | 352 | 0.0 | 0.0 | 0.00 | 0.00 | 0.00 | 51 | 1017.8 |
| 20260503181548 | 18 | 352 | 0.0 | 0.0 | 0.00 | 0.00 | 0.00 | 49 | 1017.7 |
| 20260503180041 | 18 | 352 | 0.0 | 1.6 | 0.00 | 0.00 | 0.00 | 46 | 1017.7 |
| 20260503174546 | 19 | 352 | 0.0 | 1.6 | 0.00 | 0.00 | 0.00 | 45 | 1017.7 |
| 20260503173040 | 20 | 352 | 1.6 | 3.2 | 0.00 | 0.00 | 0.00 | 41 | 1017.6 |
| 20260503171536 | 21 | 352 | 0.0 | 4.8 | 0.00 | 0.00 | 0.00 | 41 | 1017.7 |
| 20260503081555 | 19 | 281 | 9.7 | 29.0 | 0.00 | 0.00 | 0.00 | 42 | 1019.4 |
| 20260503080103 | 19 | 295 | 8.0 | 25.7 | 0.00 | 0.00 | 0.00 | 43 | 1019.5 |
| 20260503071603 | 18 | 319 | 11.3 | 24.1 | 0.00 | 0.00 | 0.00 | 44 | 1019.5 |
| 20260503054544 | 15 | 309 | 1.6 | 6.4 | 0.00 | 0.00 | 0.00 | 53 | 1019.5 |
| 20260503053030 | 14 | 229 | 0.0 | 4.8 | 0.00 | 0.00 | 0.00 | 56 | 1019.3 |
| 20260503051522 | 13 | 221 | 0.0 | 4.8 | 0.00 | 0.00 | 0.00 | 58 | 1019.2 |
| 20260503050019 | 12 | 220 | 0.0 | 4.8 | 0.00 | 0.00 | 0.00 | 60 | 1019.3 |
| 20260503044514 | 12 | 225 | 0.0 | 3.2 | 0.00 | 0.00 | 0.00 | 60 | 1019.2 |
| 20260503043012 | 11 | 224 | 1.6 | 4.8 | 0.00 | 0.00 | 0.00 | 61 | 1019.2 |
| 20260503041512 | 11 | 225 | 1.6 | 4.8 | 0.00 | 0.00 | 0.00 | 62 | 1019.2 |
| 20260503040011 | 11 | 225 | 1.6 | 4.8 | 0.00 | 0.00 | 0.00 | 62 | 1019.3 |
| 20260503034511 | 10 | 248 | 1.6 | 3.2 | 0.00 | 0.00 | 0.00 | 64 | 1019.2 |
| 20260503033009 | 10 | 224 | 0.0 | 3.2 | 0.00 | 0.00 | 0.00 | 64 | 1019.2 |
| 20260503031508 | 10 | 224 | 0.0 | 1.6 | 0.00 | 0.00 | 0.00 | 64 | 1019.3 |
| 20260503030007 | 10 | 224 | 0.0 | 3.2 | 0.00 | 0.00 | 0.00 | 63 | 1019.3 |
| 20260503024506 | 11 | 224 | 0.0 | 1.6 | 0.00 | 0.00 | 0.00 | 62 | 1019.4 |
| 20260503023005 | 11 | 224 | 1.6 | 3.2 | 0.00 | 0.00 | 0.00 | 61 | 1019.4 |
| 20260503021504 | 11 | 210 | 0.0 | 3.2 | 0.00 | 0.00 | 0.00 | 61 | 1019.3 |
| 20260503020003 | 11 | 226 | 0.0 | 3.2 | 0.00 | 0.00 | 0.00 | 61 | 1019.4 |
| 20260503014502 | 11 | 227 | 0.0 | 4.8 | 0.00 | 0.00 | 0.00 | 60 | 1019.4 |
| 20260503013103 | 11 | 218 | 1.6 | 11.3 | 0.00 | 0.00 | 0.00 | 60 | 1019.6 |
| 20260503011559 | 11 | 219 | 1.6 | 6.4 | 0.00 | 0.00 | 0.00 | 60 | 1019.7 |
| 20260503010057 | 11 | 214 | 1.6 | 8.0 | 0.00 | 0.00 | 0.00 | 60 | 1019.8 |
| 20260503004558 | 11 | 221 | 3.2 | 11.3 | 0.00 | 0.00 | 0.00 | 60 | 1020.0 |
| 20260503003056 | 11 | 201 | 3.2 | 6.4 | 0.00 | 0.00 | 0.00 | 60 | 1020.1 |
| 20260503001553 | 11 | 141 | 1.6 | 8.0 | 0.00 | 0.00 | 0.00 | 60 | 1020.1 |
| 20260503000051 | 11 | 292 | 3.2 | 9.7 | 0.00 | 0.00 | 0.00 | 60 | 1020.4 |
| 20260502234554 | 11 | 230 | 3.2 | 9.7 | 0.00 | 0.00 | 0.00 | 60 | 1020.6 |
| 20260502233046 | 11 | 224 | 1.6 | 6.4 | 0.00 | 0.00 | 0.00 | 62 | 1020.9 |
| 20260502231545 | 11 | 232 | 1.6 | 8.0 | 0.00 | 0.00 | 0.00 | 62 | 1021.0 |